SCP
0 0 0 0 0 0 0 0 0 0 0 0 0 0 0 0 0 0 0 0 0 0 0 0 0 0 0 0 0 0 0 0 0 0 0 0 0 0 0 0 0 0 0 0 0 0 0 0 0
0 0 0 0 0 0 0 0 0 0 0 0 0 0 0 0 0 0 0 0 0 0 0 0 0 0 0 0 0 0 0 0 0 0 0 0 0 0 0 0 0 0 0 0 0 0 0 0 0
0 0 0 0 0 0 0 0 0 0 0 0 0 0 0 0 0 0 0 0 0 0 0 0 0 0 0 0 0 0 0 0 0 0 0 0 0 0 0 0 0 0 0 0 0 0 0 0 0
0 0 0 0 0 0 0 0 0 0 0 0 0 0 0 0 0 0 0 0 0 0 0 0 0 0 0 0 0 0 0 0 0 0 0 0 0 0 0 0 0 0 0 0 0 0 0 0 0
0 0 0 0 0 0 0 0 0 0 0 0 0 0 0 0 0 0 0 0 0 0 0 0 0 0 0 0 0 0 0 0 0 0 0 0 0 0 0 0 0 0 0 0 0 0 0 0 0
0 0 0 0 0 0 0 0 0 0 0 0 0 0 0 0 0 0 0 0 0 0 0 0 0 0 0 0 0 0 0 0 0 0 0 0 0 0 0 0 0 0 0 0 0 0 0 0 0
0 0 0 0 0 0 0 0 0 0 0 0 0 0 0 0 0 0 0 0 0 0 0 0 0 0 0 0 0 0 0 0 0 0 0 0 0 0 0 0 0 0 0 0 0 0 0 0 0
0 0 0 0 0 0 0 0 0 0 0 0 0 0 0 0 0 0 0 0 0 0 0 0 0 0 0 0 0 0 0 0 0 0 0 0 0 0 0 0 0 0 0 0 0 0 0 0 0
0 0 0 0 0 0 0 0 0 0 0 0 0 0 0 0 0 0 0 0 0 0 0 0 0 0 0 0 0 0 0 0 0 0 0 0 0 0 0 0 0 0 0 0 0 0 0 0 0
0 0 0 0 0 0 0 0 0 0 0 0 0 0 0 0 0 0 0 0 0 0 0 0 0 0 0 0 0 0 0 0 0 0 0 0 0 0 0 0 0 0 0 0 0 0 0 0 0
0 0 0 0 0 0 0 0 0 0 0 0 0 0 0 0 0 0 0 0 0 0 0 0 0 0 0 0 0 0 0 0 0 0 0 0 0 0 0 0 0 0 0 0 0 0 0 0 0
0 0 0 0 0 0 0 0 0 0 0 0 0 0 0 0 0 0 0 0 0 0 0 0 0 0 0 0 0 0 0 0 0 0 0 0 0 0 0 0 0 0 0 0 0 0 0 0 0
0 0 0 0 0 0 0 0 0 0 0 0 0 0 0 0 0 0 0 0 0 0 0 0 0 0 0 0 0 0 0 0 0 0 0 0 0 0 0 0 0 0 0 0 0 0 0 0 0
0 0 0 0 0 0 0 0 0 0 0 0 0 0 0 0 0 0 0 0 0 0 0 0 0 0 0 0 0 0 0 0 0 0 0 0 0 0 0 0 0 0 0 0 0 0 0 0 0
0 0 0 0 0 0 0 0 0 0 0 0 0 0 0 0 0 0 0 0 0 0 0 0 0 0 0 0 0 0 0 0 0 0 0 0 0 0 0 0 0 0 0 0 0 0 0 0 0
0 0 0 0 0 0 0 0 0 0 0 0 0 0 0 0 0 0 0 0 0 0 0 0 0 0 0 0 0 0 0 0 0 0 0 0 0 0 0 0 0 0 0 0 0 0 0 0 0
0 0 0 0 0 0 0 0 0 0 0 0 0 0 0 0 0 0 0 0 0 0 0 0 0 0 0 0 0 0 0 0 0 0 0 0 0 0 0 0 0 0 0 0 0 0 0 0 0
0 0 0 0 0 0 0 0 0 0 0 0 0 0 0 0 0 0 0 0 0 0 0 0 0 0 0 0 0 0 0 0 0 0 0 0 0 0 0 0 0 0 0 0 0 0 0 0 0
0 0 0 0 0 0 0 0 0 0 0 0 0 0 0 0 0 0 0 0 0 0 0 0 0 0 0 0 0 0 0 0 0 0 0 0 0 0 0 0 0 0 0 0 0 0 0 0 0
0 0 0 0 0 0 0 0 0 0 0 0 0 0 0 0 0 0 0 0 0 0 0 0 0 0 0 0 0 0 0 0 0 0 0 0 0 0 0 0 0 0 0 0 0 0 0 0 0
0 0 0 0 0 0 0 0 0 0 0 0 0 0 0 0 0 0 0 0 1 0 0 0 0 0 0 0 0 0 0 0 0 0 0 0 0 0 0 0 0 0 0 0 0 0 0 0 0
0 0 0 0 0 0 0 0 0 0 0 0 0 0 0 0 0 0 0 0 1 0 0 0 0 0 0 0 0 0 0 0 0 0 0 0 0 0 0 0 0 0 0 0 0 0 0 0 0
0 0 0 0 0 0 0 0 0 0 0 0 0 0 0 0 0 0 0 0 1 0 0 0 0 0 0 0 0 0 0 0 0 0 0 0 0 0 0 0 0 0 0 0 0 0 0 0 0
0 0 0 0 0 0 0 0 0 0 0 0 0 0 0 0 0 0 0 1 1 1 0 0 0 0 0 0 0 0 0 0 0 0 0 0 0 0 0 0 0 0 0 0 0 0 0 0 0
0 0 0 0 0 0 0 0 0 0 0 0 0 0 0 0 0 0 1 1 1 1 1 0 0 0 0 0 0 0 0 0 0 0 0 0 0 0 0 0 0 0 0 0 0 0 0 0 0
0 0 0 0 0 0 0 0 0 0 0 0 0 0 0 0 0 0 1 1 1 1 1 1 0 0 0 0 0 0 0 0 0 0 0 0 0 0 0 0 0 0 0 0 0 0 0 0 0
0 0 0 0 0 0 0 0 0 0 0 0 0 0 0 0 0 0 1 1 1 1 1 1 1 0 0 0 0 0 0 0 0 0 0 0 0 0 0 0 0 0 0 0 0 0 0 0 0
0 0 0 0 0 0 0 0 0 0 0 0 0 0 0 0 0 1 1 1 1 1 1 1 1 0 0 0 0 0 0 0 0 0 0 0 0 0 0 0 0 0 0 0 0 0 0 0 0
0 0 0 0 0 0 0 0 0 0 0 0 0 0 0 1 1 1 1 1 1 1 1 1 0 0 0 0 0 0 0 0 0 0 0 0 0 0 0 0 0 0 0 0 0 0 0 0 0
0 0 0 0 0 0 0 0 0 0 0 0 0 0 0 1 1 1 1 1 1 1 1 0 0 0 0 0 0 0 0 0 0 0 0 0 0 0 0 0 0 0 0 0 0 0 0 0 0
Wind_Speed
7 6 3 2 6 6 3 3 1 2 3 3 5 6 6 4 2 3 1 5 6 5 3 6 9 10 11 11 12 12 12 13 13 12 12 12 13 12 13 13 13 12 12 12 12 12 12 12 13
5 5 2 4 6 4 3 3 3 2 4 4 6 6 6 5 4 6 3 4 7 5 3 5 10 10 11 11 11 12 12 11 12 12 12 12 12 12 12 12 12 12 12 12 12 12 12 12 12
5 2 4 5 4 3 2 0 4 4 3 3 4 5 5 3 4 5 4 8 6 5 3 5 10 10 10 10 11 11 11 11 11 11 12 12 11 11 12 12 12 11 12 12 11 11 11 11 11
3 3 5 6 3 1 3 3 5 5 4 5 5 5 4 3 4 5 8 9 7 4 3 5 10 10 10 10 10 11 11 11 11 10 11 11 11 11 11 11 11 11 11 11 11 10 10 10 10
3 5 6 4 2 2 2 3 3 4 3 4 5 5 4 3 7 9 9 8 7 4 3 4 9 9 9 9 9 10 10 10 10 10 9 10 10 10 10 10 10 9 9 10 10 9 9 9 9
4 5 5 2 2 2 2 3 4 5 4 4 5 4 2 2 7 8 7 6 5 4 3 3 8 9 8 8 9 9 9 9 9 9 9 9 9 9 9 9 9 9 9 9 9 9 8 8 8
5 5 3 3 2 1 2 2 3 5 5 4 4 5 2 2 4 7 6 6 5 4 3 2 3 5 7 7 8 8 8 8 8 8 8 8 8 8 8 7 8 8 8 8 8 8 8 7 7
4 5 3 2 3 2 3 3 3 5 4 5 4 6 5 5 7 7 7 5 4 3 2 2 2 2 2 3 6 7 7 7 7 7 7 7 7 7 7 6 6 7 7 7 7 7 7 7 6
4 6 2 4 5 4 4 4 3 3 6 3 2 4 6 12 11 8 6 4 3 3 1 2 2 2 2 1 3 5 6 6 5 5 6 5 3 3 3 5 6 6 6 6 6 6 6 6 5
5 4 6 5 5 6 6 5 6 5 4 2 4 6 11 13 11 9 8 7 6 6 4 2 2 2 2 2 2 2 2 3 3 2 3 3 2 2 2 3 5 5 5 5 5 5 5 4 3
4 5 3 2 4 7 6 5 4 8 4 6 8 12 13 12 10 9 8 7 7 6 5 4 3 3 2 1 2 1 1 2 2 2 2 2 2 2 2 1 2 2 3 3 3 3 2 2 2
2 1 3 4 5 6 7 6 4 5 6 7 11 14 14 13 11 10 10 8 6 6 6 4 4 3 3 2 2 2 1 1 1 1 2 2 1 1 1 1 1 1 1 2 2 1 2 2 1
2 1 2 4 6 6 6 4 4 3 3 9 12 12 13 12 10 8 7 6 6 6 6 5 5 4 4 3 2 2 2 2 2 1 2 2 2 1 1 1 1 1 1 1 1 1 1 1 1
1 3 4 4 4 3 5 2 3 3 8 11 12 11 11 12 10 8 7 7 7 7 7 5 5 5 4 3 3 2 2 2 2 2 2 3 2 2 2 1 1 1 1 1 1 1 1 0 0
3 5 4 2 3 3 5 1 3 5 10 11 11 11 10 9 9 10 10 9 8 7 6 6 6 5 5 4 4 3 2 3 2 2 2 3 3 3 2 1 1 1 1 1 1 0 1 0 0
5 5 1 2 3 3 6 4 5 7 11 10 10 10 9 8 9 9 9 7 7 6 6 6 6 6 5 4 3 2 2 2 2 2 2 3 3 3 3 2 2 1 1 1 1 1 1 0 0
4 1 2 2 3 4 4 5 4 8 10 9 9 9 9 7 7 7 8 8 8 7 7 6 5 6 5 4 3 2 2 2 2 2 2 3 3 4 3 2 2 2 2 1 2 2 2 1 1
3 2 3 4 4 5 4 5 3 8 10 10 8 8 8 9 10 8 8 8 7 7 6 6 5 5 5 3 2 1 1 1 1 2 2 3 3 4 3 2 3 3 2 2 2 2 1 1 1
4 3 4 5 4 5 6 5 5 7 8 8 8 8 9 10 7 6 7 7 7 7 7 7 6 5 5 3 3 2 2 2 1 2 3 3 3 3 3 3 3 3 2 3 3 2 2 1 1
3 2 2 2 1 4 3 3 4 7 10 10 11 11 11 8 6 7 7 8 8 8 8 7 7 6 6 4 3 2 2 2 2 1 1 3 3 4 4 4 3 3 3 3 3 3 2 1 2
2 4 4 3 2 3 2 3 2 3 5 6 7 8 9 11 10 9 9 9 8 9 9 9 8 7 6 5 3 2 2 1 1 1 1 2 3 3 3 4 4 3 3 3 4 4 4 3 2
3 4 5 4 4 1 2 2 6 3 4 7 8 9 10 10 9 9 9 9 10 10 8 7 7 7 6 6 5 5 4 3 3 2 2 2 2 3 3 4 4 4 3 4 4 4 3 3 2
4 2 4 3 5 2 2 1 9 1 5 9 9 10 10 10 10 11 11 11 9 8 8 7 6 6 6 6 7 6 4 3 2 2 2 2 2 2 3 3 4 4 3 4 4 3 4 3 3
5 7 7 6 5 1 2 3 8 5 8 7 8 9 9 9 9 9 8 7 6 6 6 6 7 6 6 7 6 6 6 4 3 3 3 2 1 1 2 3 3 3 3 4 4 4 4 4 4
5 7 5 4 4 5 2 3 10 8 7 8 8 8 7 8 9 8 9 9 8 8 8 7 7 6 6 6 6 6 6 6 6 4 4 3 2 2 2 3 3 3 3 3 3 3 3 4 4
4 9 9 6 6 5 1 5 10 6 5 5 5 4 6 7 8 9 10 9 9 10 9 8 8 7 7 7 6 5 5 4 4 4 4 4 3 3 3 3 3 3 3 3 3 2 3 3 4
6 3 6 8 3 0 5 7 9 3 2 0 2 5 6 7 7 8 8 8 8 9 9 10 9 7 7 7 6 5 5 5 5 4 4 3 3 3 3 4 3 3 3 3 3 2 3 2 3
5 9 6 7 7 3 4 4 5 5 4 2 2 5 6 6 6 6 7 8 8 8 8 7 8 8 7 7 6 6 6 6 5 4 5 4 4 3 3 3 3 3 3 3 3 2 2 3 2
4 5 6 5 5 7 3 7 7 7 5 4 5 5 6 7 7 7 6 6 7 6 7 7 7 6 6 7 6 5 5 5 5 5 5 5 4 4 4 4 4 3 3 2 2 2 3 3 2
3 5 7 6 4 4 5 8 5 3 4 3 4 4 4 5 6 6 6 6 6 7 7 7 7 7 7 6 6 6 5 5 5 5 5 4 4 4 4 4 3 3 3 2 3 3 3 3 3
Wind_Direction
147 139 140 96 54 47 26 356 42 58 51 52 77 83 89 73 99 134 136 133 128 129 129 128 124 118 115 115 115 114 113 114 117 118 118 121 123 123 123 122 121 121 121 122 123 124 125 123 121
144 147 106 61 72 57 354 347 62 78 131 123 79 72 72 64 69 110 132 140 127 126 118 124 125 119 117 118 120 120 119 120 119 118 117 119 122 123 123 121 121 122 122 120 121 124 126 124 122
152 137 80 68 80 136 161 112 113 105 101 76 75 63 71 94 119 142 156 136 120 121 117 135 127 125 120 118 124 124 124 123 121 120 120 120 121 122 123 120 119 120 121 121 123 125 124 124 123
124 56 55 65 57 204 169 161 138 118 62 51 83 69 63 89 138 141 134 131 125 124 125 142 132 128 125 123 123 126 125 125 125 124 126 125 124 124 124 123 121 120 122 123 124 125 123 123 125
69 73 60 50 22 28 110 138 127 100 72 61 77 79 50 36 102 120 130 133 134 133 133 143 135 134 132 129 128 127 127 127 127 127 128 125 125 127 128 126 123 123 124 124 123 124 125 123 123
64 68 76 70 36 53 97 112 102 91 89 82 82 85 47 92 118 132 130 126 131 131 126 136 142 141 140 138 135 133 132 131 130 131 131 128 129 129 129 128 126 126 124 122 121 122 122 122 121
102 91 112 130 109 108 155 111 118 120 111 114 112 95 78 130 130 123 113 108 111 112 108 106 128 141 145 143 142 139 136 133 132 133 134 134 133 131 130 131 132 131 129 127 126 126 123 119 118
124 98 86 123 143 182 151 114 120 126 115 124 119 134 175 175 129 111 101 99 105 108 107 104 99 96 107 134 148 144 139 136 135 136 136 136 136 133 135 136 138 136 132 131 131 129 125 122 118
94 79 154 189 172 174 153 129 141 102 114 129 124 152 158 136 129 122 118 118 138 156 140 130 118 110 109 130 153 141 139 133 127 128 129 115 81 84 112 136 142 144 141 137 131 128 128 119 110
93 126 208 197 173 154 153 143 148 116 123 109 83 97 125 138 147 153 160 168 178 184 185 172 157 148 139 150 98 77 84 89 87 79 80 79 80 88 103 125 143 144 142 135 127 121 112 97 85
131 170 199 162 146 135 138 139 136 132 174 189 162 148 147 153 162 171 177 181 187 184 186 182 176 167 160 134 115 96 87 90 93 99 96 95 85 76 71 61 71 77 94 80 83 78 77 90 101
120 175 147 146 128 134 146 145 137 172 204 174 157 153 156 166 176 183 184 186 180 177 189 187 177 173 175 158 142 136 129 122 127 132 128 113 102 96 97 85 67 61 66 74 74 85 84 85 94
91 113 105 117 116 132 131 144 151 190 141 131 139 152 166 176 185 187 185 180 177 184 189 188 182 182 175 166 173 163 163 162 166 155 152 152 150 148 137 115 95 100 103 105 99 98 94 88 78
91 92 100 101 102 123 129 127 121 185 140 141 154 169 179 184 183 178 178 184 188 190 188 181 184 186 176 178 181 172 170 164 163 171 180 173 170 169 161 156 151 155 144 138 127 129 113 112 121
78 77 55 87 120 134 113 61 224 174 148 158 171 179 186 191 186 188 189 189 190 188 183 181 184 180 181 185 188 175 169 165 175 181 187 187 182 176 168 170 184 196 155 140 131 120 98 121 120
54 70 83 251 138 138 130 230 238 160 159 174 182 186 192 199 200 197 188 185 182 178 180 185 185 177 182 181 179 165 165 168 179 179 188 197 188 178 168 173 193 175 152 152 151 143 110 68 111
38 110 223 252 181 153 164 228 222 166 171 186 191 193 196 203 209 200 189 184 180 180 179 181 182 174 176 173 161 151 156 179 186 181 190 196 189 180 174 182 185 162 156 164 177 149 151 169 177
214 213 227 224 211 159 191 234 206 178 183 195 197 197 198 207 211 196 187 181 177 176 176 180 180 171 160 148 130 119 136 175 182 189 204 196 191 184 175 182 185 168 164 175 166 161 153 167 171
179 189 228 241 202 165 202 230 216 190 193 200 202 201 207 216 206 184 182 175 170 173 178 182 181 174 160 154 160 160 185 187 194 208 211 200 192 185 179 188 178 176 182 189 173 158 158 169 148
168 188 240 299 126 152 192 256 236 197 204 206 204 205 208 208 189 185 181 178 180 184 187 187 189 182 180 177 169 164 159 175 190 210 214 210 195 193 192 186 187 186 180 180 179 163 159 185 171
206 193 200 188 74 51 92 327 264 230 219 225 219 209 208 204 197 189 185 186 186 192 193 193 193 188 186 174 141 116 94 83 133 211 219 220 204 199 194 188 186 187 183 192 194 181 176 190 200
245 227 178 153 115 338 97 270 282 241 242 232 225 211 209 207 196 188 187 188 195 199 192 190 187 186 183 170 170 169 175 188 205 198 205 224 215 205 199 192 191 193 192 198 205 194 188 179 200
203 74 106 110 116 68 38 145 285 292 248 244 229 218 212 201 193 190 191 192 195 189 184 185 179 182 180 179 182 182 189 193 187 177 197 222 227 217 208 198 193 200 204 204 203 195 194 191 195
127 73 56 49 70 86 227 169 273 238 222 236 227 217 207 197 192 189 183 176 180 175 177 177 176 185 183 184 184 188 191 187 184 194 203 220 226 224 213 204 199 201 205 210 209 204 202 204 203
96 90 44 12 19 250 255 199 249 251 234 225 221 216 199 186 182 178 175 177 179 179 181 179 179 189 186 185 191 193 193 189 196 199 200 205 215 218 217 210 208 207 211 209 203 205 213 211 208
163 139 155 184 207 262 291 230 254 268 264 238 220 196 173 177 181 184 185 182 182 182 181 180 184 189 185 188 195 194 191 190 198 196 195 204 212 217 210 203 209 212 207 205 196 205 215 212 214
134 156 155 129 141 192 279 285 300 314 337 85 160 156 175 181 182 185 182 181 182 183 185 185 186 189 189 190 190 191 193 195 200 195 195 205 211 213 202 199 204 213 207 196 189 203 214 212 214
131 139 102 117 141 215 284 278 261 284 276 263 187 184 186 176 177 181 180 181 184 184 184 179 183 192 193 190 192 196 197 201 199 190 200 207 209 207 197 201 201 206 207 198 191 196 203 200 216
102 92 101 109 145 154 216 266 237 236 239 227 217 199 185 178 179 180 180 179 177 173 174 178 185 189 194 196 195 195 196 197 194 199 208 207 206 199 198 201 196 202 209 204 193 202 193 191 204
140 150 142 142 190 165 169 259 287 259 252 228 223 204 180 177 177 170 168 164 165 172 180 186 190 193 199 195 190 196 195 192 198 208 210 202 203 200 197 193 193 202 205 195 191 195 187 188 195